Погода в Сарапуле

Россия / Удмуртская Республика     56°27′41″N   53°48′13″E
темп.,
°C
ветер,
м/с
пор.,
м/с
влажн.,
%
обл.,
%
осадки,
мм/ч
давл.,
гПа
погр.,
м
17 сентября, пт
пт1701:00+6сз71288100 0.2 1008723
04:00+6сз61188100 0.3 1008673
07:00+6сз5988100 0.1 1009718
10:00+6сз5883100 0.1 1010990
13:00+7сз5776100 0.1 10111053
16:00+7сз4883100 0.2 1012702
19:00+6сз378683 0.0 1012361
22:00+5зсз469097 0.0 1012528
18 сентября, сб
сб1801:00+5зсз4687100 0.1 1012775
04:00+4зсз4697100 0.7 1011848
07:00+4сз4791100 0.6 1012901
10:00+4ссз6882100 0.6 10141040
13:00+5сз5876100 0.1 10151166
16:00+6сз797065 0.2 10161190
19:00+4сз5117995 0.1 1017654
22:00+3сз5118598 0.1 1017582
19 сентября, вс
вс1901:00+1сз5119012 0.0 1018460
04:00+3сз5976100 0.0 1019912
07:00+2зсз598171 0.0 1020415
10:00+5сз566272 0.0 10211212
13:00+6ссз565598 0.0 10221343
16:00+6ссз565598 0.0 10231359
19:00+4ссз376373 0.0 1024372
22:00+3сз256896 0.0 1024217
20 сентября, пн
пн2001:00+1сз258242 0.0 1025119
04:00+2сз137298 0.0 102682
07:00+4ссз2458100 0.0 1027295
10:00+6с34535 0.0 10281125
13:00+8с33465 0.0 10281335
16:00+9ссв34455 0.0 10281370
19:00+4св486932 0.0 1029170
22:00+2всв37837 0.0 1030158
21 сентября, вт
вт2101:00+1в22865 0.0 103134
04:000всв229110 0.0 103032
07:000всв248835 0.0 1030100
10:00+6в445754 0.0 1029744
13:00+10в344695 0.0 10271021
16:00+10вюв334474 0.0 10251026
19:00+6в226353 0.0 102511
22:00+4всв337474 0.0 102547